[[{"header":{"parameterUnit":"m.s-1","parameterCategory":2,"la1":30.2991,"la2":30.254,"lo1":-89.0895,"lo2":-89.0444,"dy":0.0017,"dx":0.0017,"nx":28,"ny":28,"refTime":"2024-02-05T03:00:00:Z","depth":"0","parameterNumber":2,"parameterNumberName":"U-component_of_CURRENTS"},"data":[0,0,0,0,0,0,0,0,0,0,0,0,0,0,0,0,0,0,0,0,0,0,0,0,0,0,0,0,0,0,0,0,0,0,0,0,0,0,0,0,0,0,0,0,0,0,0,0,0,0,0,0,0,0,0,0,0,0,-0.2357,-0.2357,0,-0.2376,-0.2376,-0.2376,-0.2349,-0.2348,-0.2347,-0.2346,-0.2317,-0.2317,-0.2317,0,0,0,0,0,0,0,0,0,0,0,0,0,-0.2306,-0.2307,-0.2357,-0.2357,-0.2358,-0.2376,-0.2376,-0.2376,-0.2349,-0.2348,-0.2347,-0.2346,-0.2317,-0.2317,-0.2317,0,0,0,0,0,0,0,0,0,0,0,0,0,-0.2325,-0.2307,-0.2357,-0.2347,-0.2347,-0.2376,-0.2376,-0.2376,-0.2349,-0.2348,-0.2347,-0.2345,-0.2317,-0.2317,-0.2317,-0.2341,0,0,-0.2317,-0.2317,0,0,0,0,0,0,0,0,-0.2324,-0.2327,-0.2348,-0.2348,-0.2348,-0.236,-0.2348,-0.2363,-0.2349,-0.2346,-0.2346,-0.2345,-0.2329,-0.2328,-0.2333,-0.234,-0.2339,-0.2317,-0.2317,-0.2317,-0.2317,0,0,0,0,0,0,0,-0.2323,-0.2326,-0.2363,-0.2349,-0.2348,-0.2346,-0.2347,-0.2351,-0.2342,-0.2347,-0.2345,-0.235,-0.2328,-0.2333,-0.2332,-0.2338,-0.2317,-0.2317,-0.2317,-0.2317,-0.2352,-0.2353,0,0,0,0,0,0,-0.2325,-0.2325,-0.2362,-0.2363,-0.2335,-0.2348,-0.2349,-0.2356,-0.2343,-0.2341,-0.2351,-0.2349,-0.2333,-0.2332,-0.233,-0.235,-0.2317,-0.2317,-0.2317,-0.2351,-0.2352,-0.2353,0,0,0,0,0,0,-0.2324,-0.2328,-0.2361,-0.2346,-0.235,-0.235,-0.2358,-0.2357,-0.2357,-0.2348,-0.2344,-0.2352,-0.2332,-0.233,-0.2333,-0.2348,-0.2317,-0.2317,-0.235,-0.2351,-0.2353,-0.2394,0,0,0,0,0,0,-0.2323,-0.2328,-0.2329,-0.2346,-0.2351,-0.238,-0.236,-0.2358,-0.2363,-0.236,-0.2347,-0.2343,-0.2331,-0.2334,-0.2333,-0.2348,-0.2317,-0.2349,-0.235,-0.2352,-0.2391,-0.2397,-0.2401,0,0,0,0,0,-0.2321,-0.2332,-0.2329,-0.2334,-0.2354,-0.2381,-0.2383,-0.2377,-0.2364,-0.2371,-0.236,-0.2343,-0.2344,-0.2335,-0.2334,-0.2349,-0.2348,-0.235,-0.2352,-0.2389,-0.2395,-0.2401,0,0,0,0,0,0,-0.2309,-0.2331,-0.2328,-0.2344,-0.2361,-0.2376,-0.238,-0.2381,-0.238,-0.2371,-0.2356,-0.2353,-0.2362,-0.2353,-0.2342,-0.2365,-0.2343,-0.2346,-0.2372,-0.2378,-0.2383,-0.2381,-0.2317,0,0,0,0,0,-0.2309,-0.2318,-0.2343,-0.2352,-0.2362,-0.2371,-0.2379,-0.238,-0.2385,-0.2382,-0.2376,-0.2369,-0.2374,-0.2372,-0.2373,-0.2386,-0.2371,-0.2396,-0.24,-0.2404,-0.2403,-0.2395,-0.2399,-0.236,-0.236,-0.236,0,0,-0.2305,-0.2318,-0.2322,-0.2349,-0.2358,-0.2384,-0.2372,-0.2388,-0.2405,-0.238,-0.2392,-0.2387,-0.2382,-0.2396,-0.24,-0.2387,-0.2409,-0.2407,-0.2411,-0.2407,-0.2398,-0.2402,-0.2405,-0.2361,-0.2361,-0.2361,0,0,-0.2311,-0.2316,-0.2331,-0.2351,-0.2373,-0.2386,-0.2393,-0.2413,-0.2414,-0.2433,-0.242,-0.2423,-0.2429,-0.2429,-0.243,-0.2464,-0.2437,-0.2465,-0.2485,-0.2478,-0.2481,-0.2483,-0.2474,-0.2475,-0.2465,-0.2465,-0.2465,0,-0.2304,-0.2325,-0.2339,-0.2365,-0.238,-0.239,-0.2415,-0.243,-0.2447,-0.245,-0.2439,-0.2451,-0.2446,-0.2464,-0.2476,-0.2474,-0.2462,-0.2463,-0.2484,-0.2485,-0.2487,-0.2477,-0.2478,-0.2467,-0.2467,-0.2467,-0.2467,0,-0.2327,-0.2344,-0.2355,-0.2389,-0.2412,-0.2431,-0.2462,-0.2477,-0.2479,-0.2489,-0.2503,-0.25,-0.2501,-0.2508,-0.2502,-0.2518,-0.2503,-0.2492,-0.2467,-0.2493,-0.2481,-0.2481,-0.2471,-0.247,-0.2469,-0.2469,0,0,-0.2302,-0.2359,-0.236,-0.2376,-0.2423,-0.2441,-0.248,-0.251,-0.2524,-0.2537,-0.2551,-0.2564,-0.2552,-0.2553,-0.2546,-0.2544,-0.255,-0.2524,-0.2523,-0.2511,-0.2531,-0.2486,-0.2482,-0.2539,-0.2539,-0.2539,-0.2519,0,-0.2307,-0.235,-0.2383,-0.2419,-0.2441,-0.2473,-0.2506,-0.2537,-0.2555,-0.2573,-0.2574,-0.2584,-0.2573,-0.257,-0.257,-0.2556,-0.2551,-0.2556,-0.251,-0.2508,-0.2462,-0.2481,-0.2391,-0.2363,-0.2519,-0.2519,-0.2519,0,-0.2309,-0.2338,-0.2375,-0.2425,-0.2438,-0.2463,-0.2504,-0.2539,-0.2579,-0.259,-0.2603,-0.2605,-0.2613,-0.2594,-0.2581,-0.2583,-0.2559,-0.2546,-0.2544,-0.2486,-0.2463,-0.2361,-0.2357,-0.2332,-0.2518,-0.2518,-0.2518,0,-0.2264,-0.2325,-0.2346,-0.2365,-0.2433,-0.2448,-0.2481,-0.2531,-0.2561,-0.2594,-0.2609,-0.262,-0.2617,-0.26,-0.2577,-0.2576,-0.2554,-0.2547,-0.2486,-0.2483,-0.2388,-0.2376,-0.2348,-0.253,-0.253,-0.253,-0.253,0,-0.2245,-0.2259,-0.2322,-0.2332,-0.236,-0.2416,-0.2447,-0.2486,-0.254,-0.2562,-0.2603,-0.2614,-0.2616,-0.2608,-0.2583,-0.2532,-0.2555,-0.2489,-0.2474,-0.2401,-0.2391,-0.235,-0.2348,-0.2529,-0.2529,-0.253,-0.253,0,-0.2184,-0.2228,-0.2255,-0.2319,-0.2338,-0.2354,-0.2428,-0.2442,-0.251,-0.2539,-0.2548,-0.2605,-0.259,-0.2589,-0.256,-0.253,-0.2441,-0.2466,-0.2382,-0.2357,-0.2273,-0.2277,-0.2204,-0.2143,-0.2397,-0.2396,-0.2395,0,-0.2154,-0.2161,-0.2228,-0.2232,-0.2254,-0.2293,-0.231,-0.2404,-0.2426,-0.252,-0.2517,-0.2547,-0.2541,-0.2509,-0.2459,-0.2409,-0.238,-0.2298,-0.2281,-0.2256,-0.2249,-0.2239,-0.2192,-0.2176,-0.2173,-0.2171,-0.2169,0,-0.2084,-0.2106,-0.2124,-0.2145,-0.216,-0.2198,-0.2235,-0.2265,-0.2358,-0.2397,-0.2439,-0.2457,-0.2447,-0.2371,-0.2323,-0.2277,-0.2228,-0.225,-0.224,-0.2086,-0.2056,-0.1993,-0.2211,-0.2149,-0.2151,-0.2152,-0.2153,-0.2154,-0.201,-0.2006,-0.2022,-0.2033,-0.2057,-0.2075,-0.206,-0.212,-0.2163,-0.2202,-0.2294,-0.2306,-0.2278,-0.2206,-0.2163,-0.206,-0.2085,-0.1996,-0.2007,-0.2004,-0.1927,-0.2104,-0.2017,-0.2018,-0.2019,-0.202,-0.2021,0,-0.1902,-0.19,-0.1902,-0.1909,-0.1885,-0.1945,-0.1973,-0.1941,-0.1942,-0.2046,-0.2071,-0.2119,-0.2031,-0.2024,-0.1938,-0.185,-0.1795,-0.1793,-0.176,-0.1726,-0.1889,-0.1862,-0.1716,-0.1716,-0.1716,-0.1716,-0.1716,-0.1716,-0.1837,-0.1793,-0.1801,-0.1729,-0.1726,-0.1654,-0.1643,-0.1633,-0.1679,-0.1734,-0.1826,-0.1935,-0.1928,-0.1968,-0.1832,-0.1732,-0.1664,-0.1594,-0.1613,-0.1742,-0.1762,-0.1781,-0.1755,-0.1589,-0.1589,-0.1391,-0.139,-0.1389]},{"header":{"parameterUnit":"m.s-1","parameterCategory":2,"la1":30.2991,"la2":30.254,"lo1":-89.0895,"lo2":-89.0444,"dy":0.0017,"dx":0.0017,"nx":28,"ny":28,"refTime":"2024-02-05T03:00:00:Z","depth":"0","parameterNumber":3,"parameterNumberName":"V-component_of_CURRENTS"},"data":[0,0,0,0,0,0,0,0,0,0,0,0,0,0,0,0,0,0,0,0,0,0,0,0,0,0,0,0,0,0,0,0,0,0,0,0,0,0,0,0,0,0,0,0,0,0,0,0,0,0,0,0,0,0,0,0,0,0,-0.0474,-0.0473,0,-0.0404,-0.0403,-0.0403,-0.0358,-0.0357,-0.0357,-0.0357,-0.0267,-0.0265,-0.0263,0,0,0,0,0,0,0,0,0,0,0,0,0,-0.0527,-0.0527,-0.0474,-0.0473,-0.0472,-0.0404,-0.0403,-0.0402,-0.0358,-0.0357,-0.0357,-0.0357,-0.0268,-0.0265,-0.0263,0,0,0,0,0,0,0,0,0,0,0,0,0,-0.0485,-0.0526,-0.0474,-0.0442,-0.0438,-0.0404,-0.0403,-0.0402,-0.0358,-0.0357,-0.0357,-0.0357,-0.0269,-0.0266,-0.0263,-0.0251,0,0,-0.0253,-0.0251,0,0,0,0,0,0,0,0,-0.0488,-0.0484,-0.0447,-0.0444,-0.044,-0.0389,-0.0389,-0.0351,-0.0358,-0.0388,-0.0357,-0.0356,-0.0306,-0.03,-0.0288,-0.0247,-0.0243,-0.0253,-0.0251,-0.0249,-0.0248,0,0,0,0,0,0,0,-0.0491,-0.0486,-0.0446,-0.0447,-0.0442,-0.0416,-0.041,-0.0381,-0.035,-0.0386,-0.0382,-0.0374,-0.0304,-0.0292,-0.0286,-0.0242,-0.0253,-0.025,-0.0248,-0.0247,-0.0179,-0.0179,0,0,0,0,0,0,-0.0502,-0.0489,-0.0449,-0.0444,-0.0463,-0.0416,-0.0409,-0.0406,-0.0351,-0.0342,-0.0375,-0.0373,-0.0297,-0.029,-0.0282,-0.0265,-0.0249,-0.0246,-0.0244,-0.0179,-0.0179,-0.0179,0,0,0,0,0,0,-0.0504,-0.0499,-0.0452,-0.0465,-0.0457,-0.0416,-0.0412,-0.0405,-0.0392,-0.0343,-0.0334,-0.037,-0.0297,-0.0287,-0.0257,-0.0261,-0.0245,-0.0242,-0.0179,-0.0179,-0.0179,-0.023,0,0,0,0,0,0,-0.0505,-0.05,-0.0504,-0.0466,-0.0456,-0.0437,-0.0412,-0.0404,-0.0388,-0.0384,-0.0336,-0.0327,-0.0295,-0.0262,-0.0254,-0.0256,-0.0239,-0.0179,-0.0179,-0.0179,-0.0228,-0.0232,-0.0235,0,0,0,0,0,-0.0508,-0.0515,-0.0505,-0.05,-0.0462,-0.0438,-0.0431,-0.04,-0.0388,-0.0386,-0.0351,-0.0328,-0.0257,-0.0259,-0.025,-0.0251,-0.0178,-0.0179,-0.0179,-0.0226,-0.0231,-0.0235,0,0,0,0,0,0,-0.0538,-0.051,-0.0498,-0.0496,-0.0472,-0.043,-0.0426,-0.0405,-0.0376,-0.0373,-0.0327,-0.0316,-0.0292,-0.0265,-0.0268,-0.0233,-0.0215,-0.0214,-0.0254,-0.0258,-0.0262,-0.0271,-0.0237,0,0,0,0,0,-0.0548,-0.0548,-0.0513,-0.0513,-0.0504,-0.0467,-0.0454,-0.0433,-0.0401,-0.0388,-0.0353,-0.0317,-0.0286,-0.0267,-0.0237,-0.0217,-0.0184,-0.0212,-0.0216,-0.0219,-0.022,-0.0177,-0.0176,-0.018,-0.018,-0.018,0,0,-0.0559,-0.0544,-0.0543,-0.052,-0.0499,-0.0492,-0.0458,-0.0444,-0.0435,-0.0383,-0.0363,-0.0328,-0.0284,-0.0261,-0.0248,-0.0238,-0.0201,-0.0219,-0.0222,-0.0221,-0.0177,-0.0176,-0.0176,-0.018,-0.018,-0.018,0,0,-0.0587,-0.057,-0.0581,-0.0565,-0.054,-0.0514,-0.0513,-0.0475,-0.0456,-0.0431,-0.0393,-0.036,-0.0315,-0.0281,-0.0259,-0.0263,-0.0222,-0.0256,-0.0278,-0.0237,-0.0236,-0.0235,-0.0195,-0.019,-0.0256,-0.0256,-0.0256,0,-0.0602,-0.061,-0.0579,-0.0585,-0.0575,-0.0529,-0.0535,-0.0508,-0.0464,-0.0448,-0.0433,-0.0359,-0.0324,-0.0287,-0.0289,-0.0271,-0.0241,-0.0267,-0.0241,-0.024,-0.0238,-0.0197,-0.0191,-0.0259,-0.0258,-0.0258,-0.0258,0,-0.0637,-0.0642,-0.0646,-0.0638,-0.0622,-0.062,-0.0579,-0.056,-0.0531,-0.0498,-0.0456,-0.0402,-0.0357,-0.0342,-0.0316,-0.0286,-0.0268,-0.0253,-0.0233,-0.0241,-0.0197,-0.019,-0.0262,-0.0261,-0.0261,-0.026,0,0,-0.0673,-0.0673,-0.0674,-0.0683,-0.0651,-0.0643,-0.0625,-0.0593,-0.058,-0.053,-0.0505,-0.0448,-0.0412,-0.0385,-0.0343,-0.0306,-0.0269,-0.0279,-0.0276,-0.0244,-0.0177,-0.0137,-0.0125,-0.025,-0.0249,-0.0248,-0.0152,0,-0.071,-0.0742,-0.0721,-0.074,-0.0752,-0.0704,-0.0691,-0.0653,-0.0611,-0.0574,-0.0506,-0.0468,-0.043,-0.0409,-0.0365,-0.0289,-0.0252,-0.0296,-0.017,-0.0166,-0.0134,-0.0116,-0.0093,-0.0003,-0.0145,-0.0143,-0.0142,0,-0.0749,-0.0767,-0.08,-0.0798,-0.0797,-0.0793,-0.076,-0.0743,-0.0675,-0.0641,-0.0582,-0.0523,-0.0451,-0.0425,-0.0297,-0.0327,-0.0261,-0.0203,-0.0198,-0.0138,-0.0113,-0.0017,0.0016,0.0123,-0.0131,-0.0132,-0.0132,0,-0.0797,-0.0816,-0.0847,-0.0848,-0.0838,-0.0835,-0.082,-0.0765,-0.075,-0.068,-0.0655,-0.0558,-0.0506,-0.0408,-0.028,-0.0289,-0.0138,-0.0134,-0.0037,-0.0033,0.0024,0.0031,0.0173,-0.0055,-0.0055,-0.0056,-0.0056,0,-0.0843,-0.0866,-0.0875,-0.0892,-0.0923,-0.0889,-0.0898,-0.0864,-0.0812,-0.0793,-0.0695,-0.0652,-0.05,-0.039,-0.0285,-0.0126,-0.0137,-0.0032,-0.0001,0.0007,0.0011,0.0137,0.0189,-0.0052,-0.0053,-0.0054,-0.0054,0,-0.089,-0.0896,-0.0938,-0.0947,-0.095,-0.0972,-0.096,-0.096,-0.09,-0.0869,-0.0848,-0.0713,-0.056,-0.0399,-0.0226,-0.0129,0.0093,0.0063,0.0065,0.0094,0.0278,0.0325,0.0518,0.0585,0.0188,0.019,0.0191,0,-0.0917,-0.0946,-0.0988,-0.1019,-0.1026,-0.105,-0.106,-0.1015,-0.1004,-0.0906,-0.0889,-0.0733,-0.0612,-0.0327,-0.0126,0.0086,0.0173,0.022,0.0207,0.0304,0.0379,0.0414,0.0458,0.0264,0.0265,0.0267,0.0268,0,-0.0971,-0.0987,-0.1024,-0.109,-0.112,-0.1155,-0.1158,-0.1159,-0.1094,-0.1041,-0.094,-0.0832,-0.0542,-0.0278,0.0007,0.013,0.0318,0.0257,0.0365,0.0461,0.0504,0.0576,0.018,0.0281,0.028,0.0279,0.0278,0.0278,-0.1007,-0.1052,-0.11,-0.1162,-0.1205,-0.124,-0.1258,-0.1236,-0.1207,-0.1103,-0.0993,-0.0802,-0.0412,0.0002,0.0144,0.0459,0.0439,0.0542,0.0595,0.0623,0.0684,0.0317,0.0446,0.0446,0.0445,0.0445,0.0445,0,-0.1048,-0.1097,-0.1162,-0.1234,-0.1291,-0.1291,-0.1306,-0.1299,-0.1258,-0.1122,-0.0996,-0.0558,-0.0179,0.0178,0.0633,0.0787,0.0813,0.0864,0.0917,0.0946,0.0631,0.0629,0.0796,0.0796,0.0796,0.0796,0.0796,0.0796,-0.107,-0.1142,-0.118,-0.1288,-0.1334,-0.1377,-0.1382,-0.1349,-0.1256,-0.1026,-0.0768,-0.0571,-0.0009,0.0726,0.1111,0.1123,0.1243,0.1237,0.1307,0.1079,0.1052,0.1026,0.1037,0.1287,0.1287,0.1599,0.1602,0.1604]}],[{"header":{"parameterUnit":"m.s-1","parameterCategory":2,"la1":30.2991,"la2":30.254,"lo1":-89.0895,"lo2":-89.0444,"dy":0.0017,"dx":0.0017,"nx":28,"ny":28,"refTime":"2024-02-05T03:00:00:Z","depth":"2","parameterNumber":2,"parameterNumberName":"U-component_of_CURRENTS"},"data":[0,0,0,0,0,0,0,0,0,0,0,0,0,0,0,0,0,0,0,0,0,0,0,0,0,0,0,0,0,0,0,0,0,0,0,0,0,0,0,0,0,0,0,0,0,0,0,0,0,0,0,0,0,0,0,0,0,0,-0.2269,-0.2269,0,-0.2288,-0.2288,-0.2288,-0.2266,-0.2265,-0.2265,-0.2264,-0.2241,-0.2241,-0.2241,0,0,0,0,0,0,0,0,0,0,0,0,0,-0.2222,-0.2223,-0.2269,-0.227,-0.227,-0.2288,-0.2288,-0.2288,-0.2266,-0.2265,-0.2265,-0.2264,-0.2241,-0.2241,-0.2241,0,0,0,0,0,0,0,0,0,0,0,0,0,-0.224,-0.2223,-0.2269,-0.2262,-0.2262,-0.2288,-0.2288,-0.2288,-0.2266,-0.2265,-0.2264,-0.2263,-0.2241,-0.2241,-0.2241,-0.2261,0,0,-0.2241,-0.2241,0,0,0,0,0,0,0,0,-0.2239,-0.2242,-0.2263,-0.2263,-0.2263,-0.2275,-0.2263,-0.2277,-0.2267,-0.2263,-0.2264,-0.2263,-0.225,-0.225,-0.2253,-0.226,-0.2259,-0.2241,-0.2241,-0.2241,-0.2241,0,0,0,0,0,0,0,-0.2238,-0.2241,-0.2275,-0.2264,-0.2263,-0.2261,-0.2262,-0.2266,-0.226,-0.2263,-0.2262,-0.2267,-0.225,-0.2254,-0.2253,-0.2259,-0.2241,-0.2241,-0.2241,-0.2241,-0.2277,-0.2278,0,0,0,0,0,0,-0.224,-0.224,-0.2274,-0.2275,-0.225,-0.2263,-0.2264,-0.2271,-0.2261,-0.2259,-0.2268,-0.2266,-0.2254,-0.2253,-0.2252,-0.2274,-0.2241,-0.2241,-0.2241,-0.2276,-0.2277,-0.2278,0,0,0,0,0,0,-0.2239,-0.2243,-0.2273,-0.2259,-0.2263,-0.2265,-0.2272,-0.2272,-0.2274,-0.2265,-0.2262,-0.2271,-0.2253,-0.2252,-0.2257,-0.2273,-0.2241,-0.2241,-0.2275,-0.2276,-0.2277,-0.232,0,0,0,0,0,0,-0.2237,-0.2242,-0.2245,-0.2259,-0.2264,-0.2291,-0.2273,-0.2273,-0.228,-0.2277,-0.2267,-0.2264,-0.2252,-0.2257,-0.2257,-0.2272,-0.2241,-0.2273,-0.2275,-0.2277,-0.2317,-0.2322,-0.2327,0,0,0,0,0,-0.2236,-0.2246,-0.2245,-0.2249,-0.2268,-0.2292,-0.2294,-0.2291,-0.2281,-0.2288,-0.228,-0.2264,-0.2268,-0.2258,-0.2257,-0.2273,-0.2273,-0.2275,-0.2277,-0.2315,-0.2321,-0.2327,0,0,0,0,0,0,-0.2226,-0.2246,-0.2244,-0.2259,-0.2275,-0.2289,-0.2294,-0.2295,-0.2296,-0.2289,-0.2276,-0.2274,-0.2285,-0.2276,-0.2265,-0.229,-0.2268,-0.227,-0.2297,-0.2303,-0.2308,-0.2306,-0.2241,0,0,0,0,0,-0.2226,-0.2236,-0.2258,-0.2267,-0.2277,-0.2286,-0.2294,-0.2296,-0.2301,-0.23,-0.2295,-0.2291,-0.2296,-0.2295,-0.2296,-0.231,-0.2296,-0.2321,-0.2326,-0.233,-0.2329,-0.2322,-0.2326,-0.2285,-0.2285,-0.2285,0,0,-0.2224,-0.2236,-0.224,-0.2265,-0.2273,-0.2298,-0.2287,-0.2304,-0.2321,-0.2298,-0.2312,-0.2309,-0.2304,-0.2319,-0.2324,-0.2311,-0.2336,-0.2333,-0.2336,-0.2333,-0.2325,-0.2329,-0.2332,-0.2286,-0.2286,-0.2286,0,0,-0.223,-0.2236,-0.225,-0.2269,-0.229,-0.2302,-0.231,-0.2329,-0.2333,-0.2352,-0.2341,-0.2346,-0.2353,-0.2353,-0.2354,-0.2388,-0.2364,-0.2391,-0.2412,-0.2406,-0.2409,-0.2411,-0.2404,-0.2405,-0.2391,-0.2391,-0.2391,0,-0.2225,-0.2244,-0.2257,-0.2282,-0.2296,-0.2307,-0.233,-0.2346,-0.2363,-0.2368,-0.2359,-0.2374,-0.237,-0.2388,-0.24,-0.2399,-0.2389,-0.239,-0.2411,-0.2413,-0.2415,-0.2407,-0.2408,-0.2393,-0.2393,-0.2393,-0.2393,0,-0.2246,-0.2263,-0.2274,-0.2306,-0.2328,-0.2346,-0.2376,-0.2392,-0.2397,-0.2408,-0.2425,-0.2422,-0.2425,-0.2433,-0.2427,-0.2444,-0.2431,-0.2419,-0.2394,-0.2422,-0.2412,-0.2412,-0.2397,-0.2396,-0.2395,-0.2395,0,0,-0.2225,-0.2277,-0.2279,-0.2294,-0.2339,-0.2356,-0.2394,-0.2424,-0.244,-0.2455,-0.2471,-0.2486,-0.2476,-0.2477,-0.2472,-0.2471,-0.2481,-0.2453,-0.2452,-0.2442,-0.2465,-0.2418,-0.2413,-0.247,-0.247,-0.247,-0.2455,0,-0.223,-0.227,-0.23,-0.2335,-0.2356,-0.2387,-0.242,-0.2451,-0.247,-0.2491,-0.2494,-0.2506,-0.2497,-0.2496,-0.2497,-0.2485,-0.2482,-0.2486,-0.2443,-0.2442,-0.2393,-0.2412,-0.2198,-0.2163,-0.2455,-0.2455,-0.2455,0,-0.2231,-0.2258,-0.2293,-0.2341,-0.2354,-0.2379,-0.2421,-0.2455,-0.2495,-0.2508,-0.2524,-0.2528,-0.2539,-0.2521,-0.2512,-0.2513,-0.2493,-0.2481,-0.2479,-0.2418,-0.2394,-0.2182,-0.2152,-0.2455,-0.2455,-0.2455,-0.2455,0,-0.2189,-0.2247,-0.2267,-0.2286,-0.235,-0.2366,-0.2398,-0.2449,-0.2478,-0.2515,-0.2531,-0.2545,-0.2545,-0.2531,-0.251,-0.251,-0.2491,-0.2484,-0.2423,-0.242,-0.2219,-0.2198,-0.2471,-0.2471,-0.2471,-0.2471,-0.2471,0,-0.2171,-0.2185,-0.2246,-0.2256,-0.2284,-0.2338,-0.237,-0.2409,-0.2463,-0.2484,-0.2528,-0.2538,-0.2545,-0.254,-0.2518,-0.2469,-0.2493,-0.2427,-0.2412,-0.223,-0.2211,-0.2448,-0.2445,-0.247,-0.247,-0.247,-0.2471,0,-0.2114,-0.2155,-0.2181,-0.2243,-0.2263,-0.228,-0.2353,-0.2367,-0.2435,-0.2464,-0.2475,-0.2532,-0.252,-0.2522,-0.2498,-0.2467,-0.2432,-0.2406,-0.2196,-0.2157,-0.2365,-0.2365,-0.2341,-0.2339,-0.2337,-0.2336,-0.2335,0,-0.2085,-0.2092,-0.2157,-0.2161,-0.2184,-0.2224,-0.224,-0.2332,-0.2352,-0.2445,-0.2441,-0.2475,-0.2467,-0.2438,-0.2367,-0.2315,-0.2385,-0.2106,-0.2071,-0.2364,-0.2352,-0.2354,-0.2356,-0.1821,-0.1816,-0.1812,-0.1809,0,-0.2019,-0.2041,-0.2058,-0.2079,-0.2094,-0.213,-0.2166,-0.2194,-0.2283,-0.232,-0.2359,-0.2374,-0.2346,-0.2195,-0.214,-0.2086,-0.2101,-0.2021,-0.2355,-0.1903,-0.1877,-0.1865,-0.1883,-0.1771,-0.1774,-0.1777,-0.1779,-0.1781,-0.1949,-0.1944,-0.1959,-0.1971,-0.1994,-0.201,-0.1994,-0.2045,-0.2082,-0.2094,-0.2191,-0.2133,-0.2097,-0.1912,-0.1813,-0.1735,-0.1896,-0.1798,-0.1809,-0.1825,-0.1783,-0.1757,-0.1621,-0.1623,-0.1626,-0.1628,-0.163,0,-0.1844,-0.1844,-0.1845,-0.1851,-0.1825,-0.1885,-0.1909,-0.186,-0.1847,-0.1887,-0.1891,-0.1683,-0.1581,-0.1561,-0.1375,-0.1358,-0.1328,-0.1302,-0.124,-0.1278,-0.1312,-0.1243,-0.0937,-0.0935,-0.0933,-0.0932,0,0,-0.1781,-0.1737,-0.1743,-0.1672,-0.1671,-0.1594,-0.158,-0.1538,-0.153,-0.1468,-0.1425,-0.1515,-0.1531,-0.1232,-0.1156,-0.1018,-0.1144,-0.0969,-0.1522,-0.1488,-0.152,-0.1592,-0.1528,0,0,0,0,0]},{"header":{"parameterUnit":"m.s-1","parameterCategory":2,"la1":30.2991,"la2":30.254,"lo1":-89.0895,"lo2":-89.0444,"dy":0.0017,"dx":0.0017,"nx":28,"ny":28,"refTime":"2024-02-05T03:00:00:Z","depth":"2","parameterNumber":3,"parameterNumberName":"V-component_of_CURRENTS"},"data":[0,0,0,0,0,0,0,0,0,0,0,0,0,0,0,0,0,0,0,0,0,0,0,0,0,0,0,0,0,0,0,0,0,0,0,0,0,0,0,0,0,0,0,0,0,0,0,0,0,0,0,0,0,0,0,0,0,0,-0.0352,-0.0352,0,-0.0284,-0.0283,-0.0282,-0.0241,-0.0241,-0.024,-0.024,-0.0155,-0.0152,-0.015,0,0,0,0,0,0,0,0,0,0,0,0,0,-0.0405,-0.0404,-0.0352,-0.0352,-0.0351,-0.0284,-0.0283,-0.0282,-0.0241,-0.0241,-0.024,-0.024,-0.0155,-0.0153,-0.015,0,0,0,0,0,0,0,0,0,0,0,0,0,-0.0364,-0.0404,-0.0353,-0.0322,-0.0319,-0.0284,-0.0283,-0.0282,-0.0241,-0.0241,-0.024,-0.024,-0.0156,-0.0153,-0.015,-0.0136,0,0,-0.014,-0.0139,0,0,0,0,0,0,0,0,-0.0366,-0.0362,-0.0327,-0.0324,-0.032,-0.0271,-0.027,-0.0232,-0.0241,-0.027,-0.024,-0.024,-0.0192,-0.0186,-0.0174,-0.0132,-0.0129,-0.014,-0.0138,-0.0137,-0.0136,0,0,0,0,0,0,0,-0.0369,-0.0365,-0.0325,-0.0327,-0.0322,-0.0297,-0.0291,-0.0262,-0.0233,-0.0268,-0.0265,-0.0257,-0.019,-0.0177,-0.0171,-0.0127,-0.014,-0.0137,-0.0135,-0.0134,-0.0067,-0.0067,0,0,0,0,0,0,-0.038,-0.0368,-0.0327,-0.0323,-0.0343,-0.0297,-0.029,-0.0287,-0.0234,-0.0226,-0.0257,-0.0255,-0.0182,-0.0175,-0.0168,-0.0152,-0.0137,-0.0134,-0.0132,-0.0067,-0.0067,-0.0068,0,0,0,0,0,0,-0.0382,-0.0378,-0.033,-0.0343,-0.0336,-0.0296,-0.0293,-0.0286,-0.0275,-0.0226,-0.0218,-0.0254,-0.0182,-0.0173,-0.0144,-0.0148,-0.0132,-0.0129,-0.0067,-0.0067,-0.0067,-0.0117,0,0,0,0,0,0,-0.0384,-0.0379,-0.0383,-0.0344,-0.0335,-0.0316,-0.0293,-0.0284,-0.027,-0.0267,-0.022,-0.0212,-0.0181,-0.0149,-0.0141,-0.0144,-0.0127,-0.0067,-0.0067,-0.0067,-0.0115,-0.0119,-0.0122,0,0,0,0,0,-0.0386,-0.0393,-0.0384,-0.0379,-0.0342,-0.0317,-0.031,-0.028,-0.0271,-0.0269,-0.0235,-0.0214,-0.0145,-0.0146,-0.0137,-0.0139,-0.0067,-0.0067,-0.0067,-0.0114,-0.0118,-0.0122,0,0,0,0,0,0,-0.0417,-0.0388,-0.0377,-0.0375,-0.0351,-0.031,-0.0307,-0.0287,-0.0259,-0.0258,-0.0212,-0.0202,-0.0179,-0.0152,-0.0155,-0.012,-0.0103,-0.0102,-0.0142,-0.0146,-0.0149,-0.0158,-0.0124,0,0,0,0,0,-0.0427,-0.0426,-0.0392,-0.0392,-0.0383,-0.0347,-0.0334,-0.0315,-0.0284,-0.0272,-0.0238,-0.0203,-0.0172,-0.0155,-0.0125,-0.0104,-0.0073,-0.01,-0.0103,-0.0107,-0.0107,-0.0065,-0.0064,-0.0068,-0.0068,-0.0068,0,0,-0.0438,-0.0423,-0.0422,-0.0399,-0.0379,-0.0371,-0.0339,-0.0326,-0.0317,-0.0267,-0.0248,-0.0215,-0.017,-0.0147,-0.0135,-0.0125,-0.0089,-0.0107,-0.011,-0.0109,-0.0065,-0.0064,-0.0064,-0.0069,-0.0069,-0.0069,0,0,-0.0465,-0.0449,-0.046,-0.0444,-0.042,-0.0394,-0.0394,-0.0357,-0.0339,-0.0315,-0.0278,-0.0246,-0.0202,-0.0168,-0.0146,-0.0149,-0.011,-0.0144,-0.0165,-0.0124,-0.0123,-0.0122,-0.0084,-0.008,-0.0143,-0.0144,-0.0144,0,-0.0481,-0.0488,-0.0458,-0.0463,-0.0454,-0.0409,-0.0415,-0.0389,-0.0346,-0.033,-0.0318,-0.0245,-0.0211,-0.0173,-0.0175,-0.0157,-0.0129,-0.0154,-0.0128,-0.0127,-0.0125,-0.0086,-0.008,-0.0146,-0.0146,-0.0145,-0.0145,0,-0.0514,-0.0519,-0.0524,-0.0515,-0.0499,-0.0497,-0.0457,-0.0439,-0.0412,-0.0379,-0.034,-0.0287,-0.0242,-0.0228,-0.0202,-0.0172,-0.0156,-0.014,-0.012,-0.0127,-0.0086,-0.0079,-0.0149,-0.0149,-0.0148,-0.0147,0,0,-0.0551,-0.055,-0.0551,-0.0559,-0.0528,-0.052,-0.0502,-0.047,-0.0458,-0.041,-0.0386,-0.033,-0.0296,-0.0269,-0.0228,-0.019,-0.0155,-0.0166,-0.0162,-0.0133,-0.0066,-0.0031,-0.0019,-0.0136,-0.0135,-0.0134,-0.0044,0,-0.0587,-0.0618,-0.0597,-0.0614,-0.0625,-0.0579,-0.0566,-0.0528,-0.0488,-0.0452,-0.0385,-0.0349,-0.0312,-0.0293,-0.0249,-0.0175,-0.0138,-0.0181,-0.0059,-0.0056,-0.0027,-0.001,-0.002,0.0062,-0.0037,-0.0035,-0.0035,0,-0.0626,-0.0642,-0.0674,-0.0671,-0.0669,-0.0666,-0.0635,-0.0618,-0.055,-0.0519,-0.0461,-0.0404,-0.0333,-0.0308,-0.0183,-0.0212,-0.0149,-0.0092,-0.0087,-0.0031,-0.0007,0.0055,0.0079,-0.0022,-0.0023,-0.0024,-0.0025,0,-0.0673,-0.0691,-0.0721,-0.0721,-0.071,-0.0708,-0.0694,-0.064,-0.0626,-0.0559,-0.0535,-0.0439,-0.039,-0.0293,-0.0169,-0.0178,-0.0031,-0.0026,0.0067,0.007,0.0099,0.0103,0.0053,0.0052,0.0052,0.0052,0.0052,0,-0.0719,-0.0741,-0.075,-0.0766,-0.0797,-0.0763,-0.0773,-0.074,-0.069,-0.0672,-0.0576,-0.0534,-0.0385,-0.0278,-0.0175,-0.0022,-0.0031,0.0071,0.01,0.0081,0.0082,0.0037,0.0034,0.0055,0.0055,0.0054,0.0053,0,-0.0766,-0.0771,-0.0812,-0.082,-0.0824,-0.0847,-0.0836,-0.0836,-0.078,-0.0749,-0.0729,-0.0597,-0.045,-0.0292,-0.0122,-0.0028,0.011,0.0159,0.0127,0.0152,0.0182,0.0175,0.0273,0.0275,0.0277,0.0279,0.028,0,-0.0793,-0.0822,-0.0863,-0.0893,-0.0901,-0.0926,-0.0937,-0.0892,-0.0882,-0.0787,-0.077,-0.062,-0.0502,-0.0225,-0.0031,0.0174,0.0161,0.0272,0.0257,0.0188,0.0207,0.0197,0.0188,0.0275,0.0276,0.0277,0.0277,0,-0.0846,-0.0863,-0.0899,-0.0965,-0.0995,-0.1029,-0.1033,-0.1034,-0.097,-0.0918,-0.082,-0.0715,-0.0438,-0.0195,0.0078,0.0191,0.0243,0.0297,0.0248,0.0217,0.0196,0.0212,0.0202,0.0285,0.0284,0.0284,0.0283,0.0283,-0.0883,-0.0927,-0.0975,-0.1036,-0.1079,-0.1112,-0.1129,-0.1104,-0.1074,-0.0961,-0.0861,-0.0664,-0.0432,-0.0026,0.0157,0.0334,0.0323,0.0371,0.0365,0.0359,0.034,0.0323,0.0433,0.0433,0.0433,0.0433,0.0433,0,-0.0922,-0.0972,-0.1037,-0.1107,-0.1159,-0.1164,-0.1177,-0.1153,-0.1107,-0.096,-0.0831,-0.0544,-0.0263,-0.0022,0.0266,0.0425,0.0402,0.0449,0.0389,0.0382,0.0375,0.0353,0.0451,0.0451,0.0452,0.0452,0,0,-0.0944,-0.1013,-0.1049,-0.1153,-0.1202,-0.1237,-0.1242,-0.1177,-0.1066,-0.0903,-0.0735,-0.0525,-0.0233,-0.0029,0.0176,0.0325,0.0307,0.0337,0.0309,0.0208,0.0199,0.0323,0.0281,0,0,0,0,0]}],[{"header":{"parameterUnit":"m.s-1","parameterCategory":2,"la1":30.2991,"la2":30.254,"lo1":-89.0895,"lo2":-89.0444,"dy":0.0017,"dx":0.0017,"nx":28,"ny":28,"refTime":"2024-02-05T03:00:00:Z","depth":"4","parameterNumber":2,"parameterNumberName":"U-component_of_CURRENTS"},"data":[0,0,0,0,0,0,0,0,0,0,0,0,0,0,0,0,0,0,0,0,0,0,0,0,0,0,0,0,0,0,0,0,0,0,0,0,0,0,0,0,0,0,0,0,0,0,0,0,0,0,0,0,0,0,0,0,0,0,-0.1517,-0.1517,0,-0.1561,-0.1561,-0.1562,-0.1594,-0.1594,-0.1595,-0.1595,-0.1637,-0.1638,-0.1639,0,0,0,0,0,0,0,0,0,0,0,0,0,-0.1455,-0.1456,-0.1516,-0.1517,-0.1518,-0.1561,-0.1561,-0.1562,-0.1594,-0.1594,-0.1595,-0.1595,-0.1637,-0.1638,-0.1639,0,0,0,0,0,0,0,0,0,0,0,0,0,-0.1488,-0.1456,-0.1516,-0.154,-0.1543,-0.1561,-0.1561,-0.1562,-0.1594,-0.1594,-0.1595,-0.1596,-0.1637,-0.1638,-0.1639,-0.1634,0,0,-0.1643,-0.1643,0,0,0,0,0,0,0,0,-0.1486,-0.149,-0.1536,-0.1538,-0.1541,-0.1574,-0.1555,-0.1587,-0.1594,-0.1573,-0.1595,-0.1596,-0.1616,-0.1619,-0.1624,-0.1636,-0.1638,-0.1643,-0.1643,-0.1644,-0.1644,0,0,0,0,0,0,0,-0.1484,-0.1488,-0.1533,-0.1537,-0.154,-0.1547,-0.1552,-0.1561,-0.159,-0.1575,-0.1578,-0.1584,-0.1618,-0.1623,-0.1626,-0.1639,-0.1643,-0.1644,-0.1644,-0.1645,-0.1719,-0.1721,0,0,0,0,0,0,-0.148,-0.1486,-0.1531,-0.1534,-0.1516,-0.1548,-0.1554,-0.1562,-0.159,-0.1595,-0.1584,-0.1586,-0.1621,-0.1624,-0.1627,-0.1691,-0.1644,-0.1645,-0.1646,-0.1718,-0.172,-0.1721,0,0,0,0,0,0,-0.1479,-0.1484,-0.153,-0.1512,-0.1519,-0.1548,-0.1557,-0.1562,-0.1595,-0.1597,-0.1602,-0.1615,-0.1622,-0.1626,-0.166,-0.169,-0.1645,-0.1646,-0.1717,-0.1719,-0.172,-0.1774,0,0,0,0,0,0,-0.1477,-0.1483,-0.15,-0.1512,-0.152,-0.1559,-0.1557,-0.1563,-0.1597,-0.1601,-0.1625,-0.1628,-0.1622,-0.1659,-0.1661,-0.1691,-0.1647,-0.1715,-0.1717,-0.172,-0.1771,-0.1778,-0.1784,0,0,0,0,0,-0.1475,-0.1492,-0.1501,-0.1507,-0.1538,-0.156,-0.1565,-0.1586,-0.1599,-0.1618,-0.1636,-0.1628,-0.1676,-0.1661,-0.1664,-0.1694,-0.1714,-0.1717,-0.172,-0.1768,-0.1777,-0.1784,0,0,0,0,0,0,-0.1476,-0.1497,-0.1507,-0.1532,-0.1553,-0.1566,-0.1589,-0.1603,-0.1632,-0.1643,-0.1644,-0.1648,-0.169,-0.1685,-0.1668,-0.1723,-0.1694,-0.1698,-0.173,-0.1738,-0.1744,-0.174,-0.1648,0,0,0,0,0,-0.1483,-0.1503,-0.1522,-0.1544,-0.1558,-0.1579,-0.1596,-0.1612,-0.1633,-0.1648,-0.1665,-0.1683,-0.1699,-0.1714,-0.1725,-0.1756,-0.1739,-0.1778,-0.1784,-0.179,-0.1789,-0.1785,-0.1791,-0.1731,-0.1731,-0.1731,0,0,-0.1491,-0.1505,-0.1518,-0.1547,-0.1565,-0.1592,-0.1591,-0.1626,-0.1654,-0.1646,-0.1699,-0.1708,-0.1712,-0.1747,-0.1765,-0.175,-0.1801,-0.1793,-0.1798,-0.1794,-0.1789,-0.1794,-0.1799,-0.1733,-0.1732,-0.1732,0,0,-0.1506,-0.1529,-0.1549,-0.1571,-0.1605,-0.1618,-0.1635,-0.1667,-0.1691,-0.1734,-0.1736,-0.1763,-0.1796,-0.18,-0.1806,-0.1854,-0.1834,-0.1867,-0.1898,-0.1896,-0.19,-0.1904,-0.1898,-0.19,-0.1871,-0.1871,-0.1871,0,-0.1517,-0.1541,-0.156,-0.1585,-0.1608,-0.1635,-0.1663,-0.1691,-0.1733,-0.1752,-0.1761,-0.1809,-0.1817,-0.1845,-0.1867,-0.1869,-0.1863,-0.1868,-0.1903,-0.1906,-0.1909,-0.1902,-0.1904,-0.1874,-0.1874,-0.1874,-0.1873,0,-0.1538,-0.157,-0.1586,-0.1625,-0.1654,-0.1683,-0.1719,-0.1758,-0.1791,-0.1811,-0.186,-0.1871,-0.1894,-0.1908,-0.1906,-0.1937,-0.1925,-0.191,-0.188,-0.1918,-0.1908,-0.191,-0.1878,-0.1877,-0.1877,-0.1876,0,0,-0.1524,-0.1588,-0.1596,-0.1622,-0.1677,-0.1699,-0.1754,-0.1799,-0.1834,-0.1878,-0.1915,-0.195,-0.1957,-0.1963,-0.1966,-0.197,-0.1993,-0.1958,-0.1956,-0.1947,-0.1989,-0.1859,-0.1848,-0.1986,-0.1987,-0.1987,-0.1976,0,-0.1534,-0.1582,-0.1616,-0.1672,-0.1698,-0.1745,-0.1789,-0.1838,-0.1879,-0.1924,-0.1943,-0.1979,-0.1978,-0.1995,-0.2002,-0.1995,-0.1998,-0.1997,-0.1958,-0.1956,-0.1832,-0.1845,-0.1989,-0.1977,-0.1977,-0.1978,-0.1978,0,-0.1532,-0.1567,-0.162,-0.169,-0.1707,-0.1751,-0.1821,-0.1865,-0.1927,-0.1959,-0.1997,-0.2015,-0.2042,-0.203,-0.2033,-0.2035,-0.2019,-0.2007,-0.2006,-0.1863,-0.1828,-0.193,-0.198,-0.1979,-0.1979,-0.1979,-0.1979,0,-0.1489,-0.1566,-0.1608,-0.1633,-0.1717,-0.1758,-0.1806,-0.1876,-0.1915,-0.1982,-0.2011,-0.2044,-0.2062,-0.2055,-0.204,-0.2043,-0.2027,-0.2021,-0.1888,-0.1879,-0.1977,-0.1973,-0.2013,-0.2013,-0.2013,-0.2013,-0.2013,0,-0.1462,-0.15,-0.1598,-0.1619,-0.1678,-0.1744,-0.1805,-0.186,-0.1931,-0.1957,-0.2024,-0.2035,-0.207,-0.2067,-0.2048,-0.1962,-0.203,-0.1886,-0.1862,-0.2001,-0.2,-0.1978,-0.1974,-0.2013,-0.2013,-0.2013,-0.2013,0,-0.1398,-0.1463,-0.1518,-0.162,-0.1658,-0.1698,-0.1804,-0.183,-0.1916,-0.1951,-0.1973,-0.2038,-0.2023,-0.2037,-0.2019,-0.1951,-0.1896,-0.1849,-0.2,-0.1985,-0.1753,-0.1753,-0.1697,-0.1692,-0.1688,-0.1685,-0.1682,0,-0.1363,-0.1386,-0.1506,-0.1535,-0.1587,-0.1661,-0.1696,-0.1806,-0.1826,-0.1923,-0.1915,-0.1956,-0.1973,-0.1847,-0.1877,-0.1821,-0.1798,-0.1761,-0.1754,-0.1736,-0.1719,-0.1725,-0.1729,-0.1676,-0.1674,-0.1673,-0.1672,0,-0.1292,-0.1349,-0.139,-0.1457,-0.151,-0.1562,-0.1625,-0.1638,-0.1732,-0.183,-0.1804,-0.1791,-0.1771,-0.175,-0.1717,-0.1679,-0.1779,-0.1718,-0.1727,-0.172,-0.1709,-0.1697,-0.1707,-0.1658,-0.166,-0.1662,-0.1662,0,-0.1233,-0.1245,-0.1306,-0.1351,-0.1415,-0.1432,-0.1489,-0.1504,-0.155,-0.1659,-0.164,-0.1682,-0.1747,-0.1675,-0.1643,-0.1595,-0.1571,-0.1515,-0.1533,-0.1549,-0.1503,-0.1468,-0.1312,0,0,0,0,0,-0.1164,-0.1158,-0.1189,-0.1229,-0.1288,-0.1326,-0.1416,-0.1469,-0.1569,-0.1504,-0.1572,-0.1544,-0.1502,-0.1532,-0.1448,-0.1572,-0.1578,-0.1468,-0.1524,-0.158,-0.1596,-0.1554,0,0,0,0,0,0,-0.111,-0.1134,-0.1145,-0.1117,-0.1116,-0.1166,-0.1219,-0.1291,-0.1269,-0.1375,-0.1363,-0.1437,-0.1424,-0.1518,-0.1411,-0.1416,-0.1416,-0.1503,-0.1498,-0.1571,-0.1585,-0.1599,-0.1561,0,0,0,0,0]},{"header":{"parameterUnit":"m.s-1","parameterCategory":2,"la1":30.2991,"la2":30.254,"lo1":-89.0895,"lo2":-89.0444,"dy":0.0017,"dx":0.0017,"nx":28,"ny":28,"refTime":"2024-02-05T03:00:00:Z","depth":"4","parameterNumber":3,"parameterNumberName":"V-component_of_CURRENTS"},"data":[0,0,0,0,0,0,0,0,0,0,0,0,0,0,0,0,0,0,0,0,0,0,0,0,0,0,0,0,0,0,0,0,0,0,0,0,0,0,0,0,0,0,0,0,0,0,0,0,0,0,0,0,0,0,0,0,0,0,-0.0145,-0.0144,0,-0.0101,-0.01,-0.0099,-0.0072,-0.0072,-0.0072,-0.0072,-0.0009,-0.0007,-0.0006,0,0,0,0,0,0,0,0,0,0,0,0,0,-0.0174,-0.0174,-0.0145,-0.0144,-0.0144,-0.0101,-0.01,-0.0099,-0.0072,-0.0072,-0.0072,-0.0072,-0.0009,-0.0007,-0.0005,0,0,0,0,0,0,0,0,0,0,0,0,0,-0.0149,-0.0174,-0.0145,-0.0125,-0.0123,-0.0101,-0.01,-0.0099,-0.0072,-0.0072,-0.0072,-0.0072,-0.001,-0.0007,-0.0005,0.0005,0,0,0.0002,0.0003,0,0,0,0,0,0,0,0,-0.015,-0.0148,-0.0129,-0.0126,-0.0124,-0.0092,-0.0087,-0.0063,-0.0072,-0.0091,-0.0072,-0.0071,-0.0035,-0.0031,-0.0023,0.0008,0.0011,0.0002,0.0004,0.0005,0.0005,0,0,0,0,0,0,0,-0.0152,-0.0149,-0.0127,-0.0128,-0.0125,-0.0108,-0.0104,-0.0082,-0.0064,-0.009,-0.0088,-0.0083,-0.0033,-0.0025,-0.0021,0.0012,0.0002,0.0004,0.0006,0.0007,0.0055,0.0054,0,0,0,0,0,0,-0.016,-0.0151,-0.0129,-0.0126,-0.0137,-0.0107,-0.0103,-0.0102,-0.0065,-0.0059,-0.0083,-0.0082,-0.0029,-0.0024,-0.0019,-0.0007,0.0005,0.0007,0.0008,0.0055,0.0055,0.0054,0,0,0,0,0,0,-0.0161,-0.0158,-0.013,-0.0137,-0.0133,-0.0107,-0.0106,-0.0101,-0.0096,-0.006,-0.0054,-0.0083,-0.0029,-0.0022,-0.0002,-0.0005,0.0008,0.001,0.0055,0.0055,0.0054,0.0017,0,0,0,0,0,0,-0.0162,-0.0159,-0.0164,-0.0138,-0.0133,-0.0123,-0.0106,-0.0101,-0.0093,-0.0091,-0.0058,-0.0052,-0.0028,-0.0006,0.0,-0.0001,0.0012,0.0055,0.0055,0.0055,0.0019,0.0016,0.0013,0,0,0,0,0,-0.0163,-0.017,-0.0165,-0.0162,-0.014,-0.0124,-0.0119,-0.01,-0.0094,-0.0094,-0.007,-0.0053,-0.0003,-0.0004,0.0003,0.0002,0.0055,0.0055,0.0055,0.002,0.0016,0.0013,0,0,0,0,0,0,-0.0184,-0.0167,-0.0161,-0.0162,-0.0148,-0.0119,-0.0119,-0.0106,-0.0087,-0.0087,-0.0053,-0.0045,-0.003,-0.0009,-0.0011,0.0015,0.0028,0.003,-0.0,-0.0003,-0.0006,-0.0013,0.0014,0,0,0,0,0,-0.0192,-0.0195,-0.0173,-0.0176,-0.0171,-0.0147,-0.014,-0.0127,-0.0106,-0.0098,-0.0074,-0.0048,-0.0025,-0.0011,0.001,0.0026,0.0051,0.0029,0.0027,0.0024,0.0023,0.0062,0.0063,0.0053,0.0053,0.0054,0,0,-0.0201,-0.0193,-0.0194,-0.0181,-0.0169,-0.0166,-0.0143,-0.0136,-0.0132,-0.0094,-0.0083,-0.0058,-0.0024,-0.0007,0.0002,0.001,0.0039,0.0024,0.0022,0.0022,0.0062,0.0063,0.0064,0.0053,0.0053,0.0053,0,0,-0.0221,-0.0214,-0.0224,-0.0215,-0.0202,-0.0186,-0.0187,-0.0163,-0.0151,-0.0137,-0.0108,-0.0083,-0.0052,-0.0023,-0.0005,-0.0009,0.0022,-0.0006,-0.0021,0.0016,0.0017,0.0019,0.0045,0.005,-0.0004,-0.0005,-0.0005,0,-0.0234,-0.0243,-0.0224,-0.023,-0.0227,-0.0198,-0.0206,-0.0188,-0.016,-0.0149,-0.0141,-0.0086,-0.0058,-0.0026,-0.0028,-0.0014,0.0007,-0.0013,0.0013,0.0015,0.0017,0.0044,0.0049,-0.0006,-0.0006,-0.0006,-0.0006,0,-0.0259,-0.0268,-0.0273,-0.0272,-0.0264,-0.0267,-0.024,-0.0231,-0.0214,-0.019,-0.0161,-0.0118,-0.0085,-0.0071,-0.0051,-0.0023,-0.0013,0.0003,0.002,0.0016,0.0044,0.005,-0.0009,-0.0008,-0.0008,-0.0007,0,0,-0.0282,-0.0291,-0.0294,-0.0305,-0.0288,-0.0286,-0.0277,-0.0258,-0.0253,-0.0217,-0.0201,-0.0154,-0.0128,-0.0106,-0.0071,-0.0036,-0.0004,-0.0015,-0.0012,0.0009,0.0071,0.0068,0.0074,0.0016,0.0017,0.0018,0.0083,0,-0.0309,-0.0339,-0.0328,-0.0351,-0.0363,-0.0335,-0.033,-0.0307,-0.028,-0.0257,-0.02,-0.0175,-0.0141,-0.0127,-0.0085,-0.0023,0.001,-0.0024,0.0074,0.0077,0.0073,0.0081,0.0021,0.0088,0.0089,0.009,0.0091,0,-0.0334,-0.0354,-0.0386,-0.0397,-0.0399,-0.0404,-0.0392,-0.0383,-0.0337,-0.0316,-0.027,-0.0225,-0.0164,-0.014,-0.0031,-0.0055,-0.0,0.0049,0.0053,0.0068,0.0085,0.0096,0.0102,0.0101,0.01,0.01,0.0099,0,-0.0363,-0.039,-0.0421,-0.0425,-0.0432,-0.0439,-0.0437,-0.0405,-0.0399,-0.0353,-0.0338,-0.0257,-0.0218,-0.0132,-0.0027,-0.003,0.0091,0.0102,0.0152,0.0152,0.0152,0.015,0.0172,0.0172,0.0172,0.0172,0.0172,0,-0.0389,-0.0415,-0.0444,-0.046,-0.0498,-0.0482,-0.0504,-0.0486,-0.0457,-0.0448,-0.0375,-0.0342,-0.0214,-0.0126,-0.0036,0.0078,0.0087,0.0151,0.0172,0.0133,0.0129,0.0156,0.0153,0.0174,0.0174,0.0173,0.0173,0,-0.041,-0.0429,-0.0473,-0.0502,-0.0515,-0.0542,-0.0559,-0.0566,-0.0534,-0.0517,-0.0503,-0.0399,-0.0282,-0.0152,-0.0006,0.0062,0.0172,0.0207,0.015,0.0167,0.0208,0.0203,0.0267,0.0268,0.0268,0.0269,0.0269,0,-0.0421,-0.0448,-0.0511,-0.0546,-0.0564,-0.0604,-0.0626,-0.0611,-0.0608,-0.0548,-0.0533,-0.0423,-0.0342,-0.0131,-0.0004,0.017,0.0192,0.0239,0.0229,0.0205,0.022,0.0213,0.0208,0.027,0.027,0.027,0.027,0,-0.0442,-0.0472,-0.051,-0.0585,-0.0628,-0.0673,-0.0696,-0.0695,-0.0664,-0.0641,-0.0544,-0.0427,-0.0294,-0.013,0.0007,0.0129,0.0206,0.0244,0.0244,0.0235,0.0209,0.0221,0.0215,0.0271,0.0271,0.0271,0.0271,0,-0.0457,-0.0495,-0.0551,-0.0612,-0.0675,-0.0712,-0.0726,-0.0705,-0.0692,-0.061,-0.0583,-0.043,-0.034,-0.0151,-0.0027,0.0097,0.0124,0.0153,0.0158,0.0158,0.0107,0.0057,0.0093,0,0,0,0,0,-0.0464,-0.0506,-0.0569,-0.0637,-0.07,-0.073,-0.0754,-0.0752,-0.0722,-0.0656,-0.0612,-0.0483,-0.0278,-0.0187,-0.0062,-0.0031,0.0133,0.0116,0.0165,0.0279,0.0278,0.0236,0,0,0,0,0,0,-0.0469,-0.053,-0.0565,-0.064,-0.0686,-0.0745,-0.0761,-0.0742,-0.0693,-0.0645,-0.053,-0.0466,-0.0263,-0.0346,-0.0063,-0.0026,0.0018,0.0214,0.0217,0.028,0.0279,0.0277,0.0234,0,0,0,0,0]}]]